Weather History for Lattakia, Syria

Change the Weather History Date:

Tuesday, March 5, 2013

  Actual Average Record
Temperature  
Mean Temperature 57 °F -  
Max Temperature 66 °F - - ()
Min Temperature 48 °F - - ()
Degree Days  
Heating Degree Days 8    
Growing Degree Days 7 (Base 50)    
Moisture  
Dew Point 45 °F    
Average Humidity 60    
Maximum Humidity 88    
Minimum Humidity 28    
Precipitation  
Precipitation 0.00 in - - ()
Sea Level Pressure  
Sea Level Pressure 29.96 in    
Wind  
Wind Speed 10 mph ()    
Max Wind Speed 21 mph    
Max Gust Speed 29 mph    
Visibility 6.4 miles    
Events Rain , Thunderstorm    
T = Trace of Precipitation, MM = Missing Value Source: Averaged Metar Reports

Daily Weather History Graph

Daily Weather History Graph

Search for Another Location

Airport:

Trip Planner

Search our weather history database for the weather conditions in past years. The results will help you decide how hot, cold, wet, or windy it might be!

Date:

Astronomy

Mar. 05, 2013 Rise Set
Actual Time 6:00 AM EET 5:35 PM EET
Civil Twilight 5:35 AM EET 6:00 PM EET
Nautical Twilight 5:05 AM EET 6:30 PM EET
Astronomical Twilight 4:36 AM EET 6:59 PM EET
Moon 12:42 AM EET (3/5) 11:02 AM EET (3/5)
Length of Visible Light 12h 25m
Length of Day
11h 34m
Last Quarter, 44% of the Moon is Illuminated
Mar 5
Last Quarter
Mar 11
New
Mar 19
First Quarter
Mar 27
Full
Apr 3
Last Quarter

Hourly Weather History & Observations

Time (EET) Temp. Dew Point Humidity Pressure Visibility Wind Dir Wind Speed Gust Speed Precip Events Conditions
12:00 AM 59.0 °F 51.8 °F 77% 29.92 in 6.2 mi West 9.2 mph 20.7 mph N/A Thunderstorm Thunderstorm
1:00 AM 59.0 °F 51.8 °F 77% 29.92 in 6.2 mi West 11.5 mph - N/A Thunderstorm Thunderstorm
2:00 AM 59.0 °F 51.8 °F 77% 29.89 in 6.2 mi West 11.5 mph - N/A Thunderstorm Thunderstorm
3:00 AM 59.0 °F 51.8 °F 77% 29.89 in 6.2 mi West 13.8 mph - N/A Thunderstorm Thunderstorm
4:00 AM 59.0 °F 53.6 °F 82% 29.89 in 6.2 mi SSW 11.5 mph 28.8 mph N/A Rain , Thunderstorm Rain Showers
5:00 AM 59.0 °F 53.6 °F 82% 29.89 in 6.2 mi West 11.5 mph 23.0 mph N/A   Mostly Cloudy
6:00 AM 57.2 °F 53.6 °F 88% 29.89 in 6.2 mi SSW 11.5 mph 23.0 mph N/A   Scattered Clouds
7:00 AM 59.0 °F 46.4 °F 63% 29.89 in 6.2 mi SSW 11.5 mph 23.0 mph N/A   Scattered Clouds
8:00 AM 61 °F 47 °F 50% 29.89 in 9 mi West 4.5 mph - -   Scattered Clouds
8:00 AM 59.0 °F 53.6 °F 82% 29.92 in 6.2 mi WSW 11.5 mph - N/A   Scattered Clouds
9:00 AM 62.6 °F 55.4 °F 77% 29.92 in 6.2 mi WSW 11.5 mph - N/A   Scattered Clouds
10:00 AM 62.6 °F 51.8 °F 68% 29.95 in 6.2 mi West 9.2 mph - N/A   Scattered Clouds
11:00 AM 64.4 °F 48.2 °F 56% 29.95 in 6.2 mi West 9.2 mph - N/A   Scattered Clouds
12:00 PM 64.4 °F 50.0 °F 59% 29.95 in 6.2 mi West 6.9 mph - N/A   Scattered Clouds
1:00 PM 66.2 °F 35.6 °F 32% 29.95 in 6.2 mi West 13.8 mph - N/A   Scattered Clouds
2:00 PM 65 °F 40 °F 28% 29.94 in 9 mi WNW 13.4 mph - -  
2:00 PM 64.4 °F 35.6 °F 34% 29.95 in 6.2 mi WNW 18.4 mph - N/A   Scattered Clouds
3:00 PM 64.4 °F 39.2 °F 40% 29.98 in 6.2 mi WNW 20.7 mph - N/A   Scattered Clouds
4:00 PM 62.6 °F 37.4 °F 39% 29.95 in 6.2 mi West 17.3 mph - N/A   Scattered Clouds
5:00 PM 60.8 °F 35.6 °F 39% 30.01 in 6.2 mi NW 13.8 mph - N/A   Scattered Clouds
6:00 PM 55.4 °F 35.6 °F 47% 30.01 in 6.2 mi NW 6.9 mph - N/A   Scattered Clouds
7:00 PM 53.6 °F 37.4 °F 54% 30.01 in 6.2 mi NNW 6.9 mph - N/A   Partly Cloudy
8:00 PM 50.0 °F 37.4 °F 62% 30.04 in 6.2 mi NNW 4.6 mph - N/A   Partly Cloudy
9:00 PM 48.2 °F 39.2 °F 71% 30.06 in 6.2 mi NE 4.6 mph - N/A   Scattered Clouds
10:00 PM 48.2 °F 39.2 °F 71% 30.09 in 6.2 mi North 4.6 mph - N/A   Scattered Clouds
11:00 PM 48.2 °F 24.8 °F 40% 30.09 in 6.2 mi North 13.8 mph - N/A   Partly Cloudy